Home > Weather > Itzehoe > Past weeks

Flag for Germany Past Weather in Itzehoe, Schleswig-Holstein, Germany — Yesterday and Last 2 Weeks

Now
64 °F

Partly sunny.


Feels Like: 64 °F
Forecast: 56 / 66 °F
Wind: 2 mph from South

Location: Hohn

Current Time: Jun 28, 2016 at 8:50:57 PM

Latest Report: Jun 28, 2016 at 8:20 PM


Visibility: N/A

Pressure: 29.98 "Hg

Humidity: 56%

Dew Point: 48 °F

Location of ItzehoeLocation

Past Weather in Itzehoe — Graph

°F

Itzehoe Temperature Yesterday

Maximum temperature yesterday: 66 °F (at 11:20 AM)
Minimum temperature yesterday: 54 °F (at 4:20 AM)
Average temperature yesterday: 60 °F

High & Low Weather Summary for the Past Weeks

 TemperatureHumidityPressure
High84 °F (Jun 23, 2:20 PM)100% (Jun 15, 1:20 AM)30.21 "Hg (Jun 15, 1:20 AM)
Low45 °F (Jun 20, 3:20 AM)43% (Jun 28, 6:20 PM)29.45 "Hg (Jun 14, 2:20 PM)
Average62 °F83%29.88 "Hg
* Reported Jun 13 7:20 PM — Jun 28 7:20 PM, Itzehoe, Weather by CustomWeather, © 2016

Note: Actual official high and low records may vary slightly from our data, if they occured in-between our weather recording intervals... More about our weather records

Advertising

Itzehoe Weather History for the Previous 24 Hours

Scroll right to see more
 ConditionsComfort  
Time TempWeatherWind HumidityBarometerVisibility
7:20 PM
Tue, Jun 28
66 °FScattered clouds.3 mph43%29.98 "HgN/A
6:20 PM66 °FScattered clouds.5 mph43%29.98 "HgN/A
5:20 PM66 °FScattered clouds.5 mph46%30.01 "HgN/A
4:20 PM66 °FScattered clouds.7 mph49%30.01 "HgN/A
3:20 PM66 °FPassing clouds.10 mph49%30.04 "HgN/A
2:20 PM66 °FPassing clouds.8 mph52%30.04 "HgN/A
1:20 PM64 °FScattered clouds.9 mph56%30.04 "HgN/A
12:20 PM63 °FScattered clouds.13 mph64%30.04 "HgN/A
11:20 AM63 °FScattered clouds.9 mph68%30.07 "HgN/A
10:20 AM61 °FScattered clouds.8 mph68%30.04 "HgN/A
9:20 AM61 °FScattered clouds.8 mph63%30.04 "HgN/A
8:20 AM59 °FScattered clouds.7 mph82%30.04 "HgN/A
7:20 AM59 °FBroken clouds.6 mph88%30.04 "HgN/A
6:20 AM55 °FPartly sunny.3 mph94%30.01 "HgN/A
5:20 AM55 °FPassing clouds.5 mph94%30.01 "Hg6 mi
4:20 AM54 °FPassing clouds.3 mph94%30.01 "HgN/A
3:20 AM55 °FPassing clouds.6 mph94%30.01 "HgN/A
2:20 AM55 °FPassing clouds.5 mph94%30.01 "HgN/A
1:20 AM55 °FPassing clouds.3 mph94%30.01 "HgN/A
12:20 AM57 °FPassing clouds.3 mph94%30.01 "HgN/A
11:52 PM
Mon, Jun 27
55 °FPassing clouds.3 mph94%30.01 "HgN/A
11:20 PM57 °FPassing clouds.5 mph94%30.01 "HgN/A
10:20 PM59 °FScattered clouds.5 mph88%29.98 "HgN/A
9:20 PM61 °FScattered clouds.6 mph83%29.98 "HgN/A
8:20 PM61 °FScattered clouds.10 mph83%29.98 "HgN/A
Weather by CustomWeather, © 2016

See weather overviewHow to use our weather pages